Bloomington, IN

7:59 PM EST on January 17, 2017 (GMT -0500)
Monroe County

Weather History for KBMG - December, 2011

Change the Weather History Date:

Wednesday, December 21, 2011

  Actual Average Record
Temperature  
Mean Temperature 51 °F 31 °F  
Max Temperature 58 °F 39 °F 59 °F (2013)
Min Temperature 44 °F 22 °F 0 °F (2000)
Degree Days  
Heating Degree Days 14 34  
Month to date heating degree days 552 666  
Since 1 July heating degree days 1474 1722  
Cooling Degree Days 0 0  
Month to date cooling degree days 0 0  
Year to date cooling degree days 1170 927  
Moisture  
Dew Point 48 °F    
Average Humidity 86    
Maximum Humidity 96    
Minimum Humidity 76    
Precipitation  
Precipitation 0.09 in 0.13 in 4.82 in (2013)
Month to date precipitation 2.58 2.16  
Year to date precipitation 53.44 46.17  
Sea Level Pressure  
Sea Level Pressure 29.77 in    
Wind  
Wind Speed 7 mph (SW)    
Max Wind Speed 21 mph    
Max Gust Speed 26 mph    
Visibility 8 miles    
Events Fog , Rain    
T = Trace of Precipitation, MM = Missing Value Source: NWS Daily Summary

Daily Weather History Graph

Daily Weather History Graph

Search for Another Location

Airport or City:

Trip Planner

Search our weather history database for the weather conditions in past years. The results will help you decide how hot, cold, wet, or windy it might be!

Date:

Astronomy

Dec. 21, 2011 Rise Set
Actual Time 8:02 AM EST 5:26 PM EST
Civil Twilight 7:31 AM EST 5:57 PM EST
Nautical Twilight 6:58 AM EST 6:30 PM EST
Astronomical Twilight 6:25 AM EST 7:03 PM EST
Moon 4:35 AM EST (12/21) 2:45 PM EST (12/21)
Length of Visible Light 10h 25m
Length of Day
9h 24m
Waning Crescent, 12% of the Moon is Illuminated
Dec 21
Waning Crescent
Dec 24
New
Jan 1
First Quarter
Jan 9
Full
Jan 16
Last Quarter

Hourly Weather History & Observations

Time (EST) Temp. Windchill Dew Point Humidity Pressure Visibility Wind Dir Wind Speed Gust Speed Precip Events Conditions
12:07 AM 50.0 °F - 48.2 °F 94% 29.77 in 1.8 mi SSE 8.1 mph - 0.02 in Rain Light Rain
12:15 AM 50.0 °F - 48.2 °F 94% 29.76 in 2.0 mi SSE 5.8 mph - 0.02 in Rain Light Rain
12:23 AM 50.0 °F - 48.2 °F 94% 29.75 in 1.0 mi SSE 6.9 mph - 0.02 in Rain Light Rain
12:32 AM 50.0 °F - 50.0 °F 100% 29.74 in 0.5 mi SSE 5.8 mph - 0.02 in Fog , Rain Light Rain
12:53 AM 51.1 °F - 50.0 °F 96% 29.74 in 0.5 mi South 4.6 mph - 0.03 in Fog , Rain Light Rain
1:53 AM 54.0 °F - 53.1 °F 97% 29.70 in 0.8 mi SSE 12.7 mph - 0.00 in   Mist
2:02 AM 53.6 °F - 53.6 °F 100% 29.69 in 1.2 mi SSE 10.4 mph - N/A   Overcast
2:10 AM 53.6 °F - 53.6 °F 100% 29.70 in 3.0 mi SSE 8.1 mph - N/A   Overcast
2:24 AM 55.4 °F - 53.6 °F 94% 29.68 in 5.0 mi SSE 10.4 mph - N/A   Overcast
2:53 AM 55.9 °F - 55.9 °F 100% 29.68 in 6.0 mi South 9.2 mph - 0.02 in Rain Light Rain
3:31 AM 57.2 °F - 55.4 °F 94% 29.69 in 9.0 mi SW 4.6 mph - 0.06 in Rain Light Rain
3:53 AM 57.0 °F - 55.9 °F 96% 29.69 in 5.0 mi SSW 5.8 mph - 0.06 in Rain Light Rain
4:53 AM 57.0 °F - 55.0 °F 93% 29.68 in 10.0 mi WSW 8.1 mph - 0.00 in   Overcast
5:04 AM 57.2 °F - 55.4 °F 94% 29.67 in 10.0 mi West 8.1 mph - 0.00 in Rain Light Rain
5:25 AM 57.2 °F - 53.6 °F 88% 29.68 in 10.0 mi WSW 10.4 mph - 0.00 in   Overcast
5:53 AM 55.9 °F - 53.1 °F 90% 29.67 in 10.0 mi West 6.9 mph - 0.00 in   Overcast
6:24 AM 55.4 °F - 51.8 °F 88% 29.66 in 10.0 mi WSW 6.9 mph - N/A   Mostly Cloudy
6:53 AM 52.0 °F - 50.0 °F 93% 29.68 in 10.0 mi SW 5.8 mph - N/A   Clear
7:53 AM 53.1 °F - 51.1 °F 93% 29.68 in 10.0 mi SW 6.9 mph - N/A   Overcast
8:02 AM 53.6 °F - 51.8 °F 94% 29.68 in 10.0 mi SW 5.8 mph - N/A   Overcast
8:25 AM 53.6 °F - 51.8 °F 94% 29.69 in 10.0 mi WSW 6.9 mph - N/A   Overcast
8:53 AM 53.1 °F - 51.1 °F 93% 29.69 in 10.0 mi SW 10.4 mph - N/A   Overcast
9:12 AM 53.6 °F - 50.0 °F 88% 29.70 in 10.0 mi SW 12.7 mph 19.6 mph N/A   Mostly Cloudy
9:20 AM 53.6 °F - 51.8 °F 94% 29.70 in 10.0 mi WSW 8.1 mph - N/A   Overcast
9:26 AM 53.6 °F - 51.8 °F 94% 29.70 in 10.0 mi WSW 10.4 mph - N/A   Overcast
9:53 AM 53.1 °F - 50.0 °F 89% 29.71 in 10.0 mi West 10.4 mph 21.9 mph N/A   Overcast
10:33 AM 50.0 °F - 46.4 °F 87% 29.75 in 10.0 mi WNW 13.8 mph 24.2 mph 0.00 in Rain Light Rain
10:53 AM 50.0 °F - 46.9 °F 89% 29.77 in 10.0 mi West 8.1 mph - 0.00 in   Overcast
11:09 AM 50.0 °F - 46.4 °F 87% 29.77 in 10.0 mi West 9.2 mph 17.3 mph N/A   Overcast
12:02 PM 50.0 °F - 44.6 °F 82% 29.79 in 10.0 mi West 13.8 mph 20.7 mph N/A   Overcast
12:30 PM 48.2 °F - 44.6 °F 87% 29.79 in 7.0 mi West 13.8 mph 20.7 mph 0.00 in   Overcast
12:53 PM 48.9 °F - 45.0 °F 86% 29.79 in 10.0 mi West 9.2 mph - 0.00 in   Overcast
2:16 PM 48.2 °F - 44.6 °F 87% 29.80 in 10.0 mi West 9.2 mph - N/A   Overcast
2:53 PM 48.0 °F - 43.0 °F 83% 29.81 in 10.0 mi West 5.8 mph - N/A   Overcast
3:53 PM 48.0 °F - 42.1 °F 80% 29.84 in 10.0 mi WSW 8.1 mph 17.3 mph N/A   Overcast
4:38 PM 46.4 °F 44.3 °F 42.8 °F 87% 29.86 in 10.0 mi West 4.6 mph - N/A   Overcast
4:53 PM 46.9 °F - 41.0 °F 80% 29.87 in 10.0 mi West 9.2 mph - N/A   Overcast
5:53 PM 46.9 °F - 41.0 °F 80% 29.89 in 10.0 mi West 8.1 mph - N/A   Overcast
7:53 PM 45.0 °F 41.8 °F 39.9 °F 82% 29.94 in 10.0 mi WSW 5.8 mph - N/A   Overcast
8:53 PM 45.0 °F 42.6 °F 39.0 °F 80% 29.96 in 10.0 mi WSW 4.6 mph - N/A   Overcast
9:53 PM 44.1 °F - 39.0 °F 82% 29.97 in 10.0 mi Calm Calm - N/A   Overcast
10:19 PM 44.6 °F - 39.2 °F 81% 29.97 in 10.0 mi Calm Calm - N/A   Overcast
10:53 PM 44.1 °F 42.5 °F 39.0 °F 82% 29.99 in 10.0 mi SW 3.5 mph - N/A   Overcast
11:53 PM 44.1 °F - 39.0 °F 82% 29.98 in 10.0 mi Calm Calm - N/A   Overcast